COSMOS 2251 DEB, 33822

Orbit data source: Space-Track

COSMOS 2251 DEB, 33822 is space debris in LEO originally from a launch on Wed, 16 Jun 1993 UTC launched from the Plesetsk Missile And Space Complex (PKMTR). The debris from Iridium 33, an American commercial communications satellite, has been tracked extensively since its accidental collision with the defunct Russian satellite Cosmos 2251 in 2009. This event, occurring at high speed in low Earth orbit (LEO), generated thousands of pieces of space debris, significantly increasing the risk of further collisions. The Iridium 33 debris cloud has impacted space traffic management and orbital debris mitigation strategies, making it a subject of ongoing study in space situational awareness.

Loading next visibility...
Identifier
33822, 1993-036BP
Orbit
LEO
Country
Flag of CISCIS
Related business
Manufacturer
Unknown
Mission
Spacecraft
Bus & Motor
Unknown
Mass
Unknown
Launch date (UTC)
1993-06-16 (33 years ago)
Launch vehicle
Unknown
Launch site
Plesetsk Missile And Space Complex (PKMTR)
Object type
Payload
Rocket body
Debris
Shape & HBR
Unknown shape, 0.1 m
Radar Cross Section
Small (<0.1 m²)

Expand to show TLE details & history
Last TLE update: 7 hours ago

TLE from 7 hours ago
0 COSMOS 2251 DEB
1 33822U 93036BP  26123.63546374  .00001938  00000-0  93049-3 0  9990
2 33822  74.0674 302.9757 0148703 315.6782 115.5608 14.13955946880599
Epoch: 2026-05-03T15:15Z
TLE epoch observation values (Epoch: 2026-05-03T15:15:04.067Z)
Latitude
66.78759°
Longitude
-105.86148°
Altitude
904.703 km
Speed
7.381 km/s
True Right ascension
22h 57m 45s
True Declination
66° 39' 55"
Sunlit
Object was in daylight at epoch
Visualization orbit readout
Latitude
Unknown
Longitude
Unknown
Altitude
Unknown
Speed
Unknown
Apparent Right ascension
Unknown
Apparent Declination
Unknown
Sunlit
N/A
Visualization observer readout
Local Sidereal Time
06:30:53
Azimuth
Unknown
Elevation
Unknown
Doppler factor
Unknown
Orbital elements
Apogee altitude
950.899 km
Perigee altitude
736.123 km
Semi-major axis
7,221.648 km
Eccentricity
0.01487
Inclination
74.0674°
RAAN
302.9757°
Arg. of periapsis
315.6782°
True anomaly
117.08562°
Mean anomaly
115.5608°
Eccentric anomaly
116.32445°
Mean motion
3.53662 °/min
Orbital period
101.79 mins
BSTAR
0.00093049

Documentation

Showing up to 5 results
|